| time (UTC) | temp F | wind direction | speed MPH | gust MPH | rain 1hr in | rain 24hr in | rain mn in | humidity % | barometer mb |
| 20260831073550 | 78 | 147 | 0.0 | 4.0 | 0.00 | 0.00 | 0.00 | 86 | 1015.1 |
| 20260831073100 | 78 | 0 | 0.0 | 5.0 | 0.00 | 0.00 | 0.00 | 86 | 1015.0 |
| 20260831072551 | 78 | 127 | 0.0 | 5.0 | 0.00 | 0.00 | 0.00 | 86 | 1015.1 |
| 20260831072051 | 79 | 161 | 1.0 | 5.0 | 0.00 | 0.00 | 0.00 | 86 | 1015.0 |
| 20260831071603 | 79 | 165 | 0.0 | 6.0 | 0.00 | 0.00 | 0.00 | 85 | 1015.1 |
| 20260831071051 | 79 | 170 | 0.0 | 6.0 | 0.00 | 0.00 | 0.00 | 85 | 1015.1 |
| 20260831070553 | 79 | 168 | 1.0 | 6.0 | 0.00 | 0.00 | 0.00 | 85 | 1015.1 |
| 20260831070106 | 79 | 165 | 1.0 | 8.0 | 0.00 | 0.00 | 0.00 | 84 | 1015.2 |
| 20260831065552 | 79 | 163 | 2.0 | 8.0 | 0.00 | 0.00 | 0.00 | 84 | 1015.1 |
| 20260831065139 | 79 | 167 | 2.0 | 8.0 | 0.00 | 0.00 | 0.00 | 83 | 1015.2 |
| 20260831064607 | 79 | 146 | 2.0 | 8.0 | 0.00 | 0.00 | 0.00 | 83 | 1015.3 |
| 20260831064050 | 79 | 0 | 1.0 | 8.0 | 0.00 | 0.00 | 0.00 | 82 | 1015.2 |
| 20260831063550 | 79 | 201 | 4.0 | 8.0 | 0.00 | 0.00 | 0.00 | 82 | 1015.3 |
| 20260831063109 | 79 | 169 | 2.0 | 7.0 | 0.00 | 0.00 | 0.00 | 81 | 1015.3 |
| 20260831062552 | 79 | 175 | 2.0 | 7.0 | 0.00 | 0.00 | 0.00 | 81 | 1015.4 |
| 20260831062054 | 80 | 189 | 2.0 | 9.0 | 0.00 | 0.00 | 0.00 | 80 | 1015.3 |
| 20260831061602 | 80 | 161 | 1.0 | 9.0 | 0.00 | 0.00 | 0.00 | 80 | 1015.2 |
| 20260831061054 | 80 | 144 | 1.0 | 7.0 | 0.00 | 0.00 | 0.00 | 79 | 1015.2 |
| 20260831060554 | 80 | 208 | 1.0 | 7.0 | 0.00 | 0.00 | 0.00 | 79 | 1015.2 |
| 20260831060105 | 80 | 148 | 2.0 | 7.0 | 0.00 | 0.00 | 0.00 | 78 | 1015.2 |
| 20260831055549 | 80 | 157 | 1.0 | 8.0 | 0.00 | 0.00 | 0.00 | 78 | 1015.2 |
| 20260831055054 | 80 | 166 | 2.0 | 8.0 | 0.00 | 0.00 | 0.00 | 77 | 1015.2 |
| 20260831054559 | 81 | 142 | 2.0 | 8.0 | 0.00 | 0.00 | 0.00 | 77 | 1015.2 |
| 20260831054053 | 81 | 173 | 2.0 | 6.0 | 0.00 | 0.00 | 0.00 | 76 | 1015.1 |
| 20260831053553 | 81 | 163 | 1.0 | 5.0 | 0.00 | 0.00 | 0.00 | 76 | 1015.0 |
| 20260831053108 | 81 | 132 | 1.0 | 10.0 | 0.00 | 0.00 | 0.00 | 76 | 1015.2 |
| 20260831052549 | 81 | 137 | 2.0 | 10.0 | 0.00 | 0.00 | 0.00 | 75 | 1014.9 |
| 20260831052049 | 81 | 173 | 1.0 | 11.0 | 0.00 | 0.00 | 0.00 | 74 | 1015.0 |
| 20260831051610 | 81 | 158 | 3.0 | 11.0 | 0.00 | 0.00 | 0.00 | 74 | 1015.0 |
| 20260831051049 | 82 | 156 | 3.0 | 12.0 | 0.00 | 0.00 | 0.00 | 73 | 1014.9 |
| 20260831050552 | 82 | 125 | 5.0 | 12.0 | 0.00 | 0.00 | 0.00 | 73 | 1015.0 |
| 20260831050118 | 82 | 160 | 1.0 | 10.0 | 0.00 | 0.00 | 0.00 | 72 | 1014.9 |
| 20260831045551 | 82 | 163 | 3.0 | 11.0 | 0.00 | 0.00 | 0.00 | 71 | 1014.9 |
| 20260831045052 | 82 | 153 | 4.0 | 11.0 | 0.00 | 0.00 | 0.00 | 71 | 1014.7 |
| 20260831044616 | 82 | 111 | 2.0 | 10.0 | 0.00 | 0.00 | 0.00 | 70 | 1014.7 |
| 20260831044052 | 83 | 119 | 3.0 | 10.0 | 0.00 | 0.00 | 0.00 | 70 | 1014.7 |
| 20260831043550 | 83 | 124 | 4.0 | 12.0 | 0.00 | 0.00 | 0.00 | 70 | 1014.5 |
| 20260831043100 | 83 | 132 | 4.0 | 12.0 | 0.00 | 0.00 | 0.00 | 69 | 1014.6 |
| 20260831042557 | 83 | 140 | 2.0 | 10.0 | 0.00 | 0.00 | 0.00 | 69 | 1014.5 |
| 20260831042052 | 83 | 0 | 3.0 | 12.0 | 0.00 | 0.00 | 0.00 | 68 | 1014.5 |
| 20260831041604 | 83 | 147 | 3.0 | 12.0 | 0.00 | 0.00 | 0.00 | 68 | 1014.4 |
| 20260831041050 | 84 | 113 | 2.0 | 11.0 | 0.00 | 0.00 | 0.00 | 67 | 1014.5 |
| 20260831040553 | 84 | 204 | 2.0 | 11.0 | 0.00 | 0.00 | 0.00 | 67 | 1014.4 |
| 20260831040105 | 84 | 140 | 4.0 | 11.0 | 0.00 | 0.00 | 0.00 | 67 | 1014.4 |
| 20260831035552 | 84 | 121 | 2.0 | 8.0 | 0.00 | 0.00 | 0.00 | 66 | 1014.4 |
| 20260831035050 | 84 | 161 | 2.0 | 10.0 | 0.00 | 0.00 | 0.00 | 66 | 1014.3 |
| 20260831034606 | 84 | 149 | 1.0 | 11.0 | 0.00 | 0.00 | 0.00 | 65 | 1014.2 |
| 20260831034049 | 85 | 158 | 3.0 | 11.0 | 0.00 | 0.00 | 0.00 | 65 | 1014.2 |
| 20260831033555 | 85 | 145 | 3.0 | 10.0 | 0.00 | 0.00 | 0.00 | 64 | 1014.2 |
| 20260831033120 | 85 | 149 | 3.0 | 10.0 | 0.00 | 0.00 | 0.00 | 64 | 1014.2 |
| 20260831032554 | 85 | 165 | 2.0 | 10.0 | 0.00 | 0.00 | 0.00 | 63 | 1014.2 |
| 20260831032054 | 85 | 147 | 3.0 | 10.0 | 0.00 | 0.00 | 0.00 | 63 | 1014.1 |
| 20260831031602 | 86 | 207 | 3.0 | 10.0 | 0.00 | 0.00 | 0.00 | 63 | 1014.1 |
| 20260831031051 | 86 | 120 | 3.0 | 10.0 | 0.00 | 0.00 | 0.00 | 63 | 1014.0 |
| 20260831030554 | 86 | 207 | 2.0 | 10.0 | 0.00 | 0.00 | 0.00 | 63 | 1014.0 |
| 20260831030107 | 86 | 161 | 2.0 | 10.0 | 0.00 | 0.00 | 0.00 | 62 | 1013.9 |
| 20260831025555 | 86 | 198 | 2.0 | 9.0 | 0.00 | 0.00 | 0.00 | 62 | 1013.8 |
| 20260831025055 | 86 | 153 | 3.0 | 12.0 | 0.00 | 0.00 | 0.00 | 62 | 1013.7 |
| 20260831024603 | 86 | 184 | 4.0 | 12.0 | 0.00 | 0.00 | 0.00 | 62 | 1013.5 |
| 20260831024052 | 87 | 157 | 3.0 | 12.0 | 0.00 | 0.00 | 0.00 | 62 | 1013.5 |
| 20260831023554 | 87 | 178 | 2.0 | 12.0 | 0.00 | 0.00 | 0.00 | 61 | 1013.3 |
| 20260831023106 | 87 | 166 | 3.0 | 12.0 | 0.00 | 0.00 | 0.00 | 61 | 1013.1 |
| 20260831022556 | 87 | 160 | 2.0 | 10.0 | 0.00 | 0.00 | 0.00 | 61 | 1013.1 |
| 20260831022055 | 87 | 153 | 3.0 | 10.0 | 0.00 | 0.00 | 0.00 | 61 | 1013.0 |
| 20260831021604 | 87 | 139 | 3.0 | 8.0 | 0.00 | 0.00 | 0.00 | 61 | 1013.0 |
| 20260831021054 | 88 | 117 | 2.0 | 9.0 | 0.00 | 0.00 | 0.00 | 61 | 1012.9 |
| 20260831020559 | 88 | 145 | 2.0 | 9.0 | 0.00 | 0.00 | 0.00 | 61 | 1012.8 |
| 20260831020110 | 88 | 128 | 3.0 | 9.0 | 0.00 | 0.00 | 0.00 | 61 | 1012.7 |
| 20260831015555 | 88 | 138 | 2.0 | 9.0 | 0.00 | 0.00 | 0.00 | 60 | 1012.7 |
| 20260831015051 | 88 | 159 | 3.0 | 9.0 | 0.00 | 0.00 | 0.00 | 60 | 1012.6 |
| 20260831014609 | 88 | 210 | 2.0 | 10.0 | 0.00 | 0.00 | 0.00 | 60 | 1012.6 |
| 20260831014052 | 88 | 146 | 3.0 | 12.0 | 0.00 | 0.00 | 0.00 | 60 | 1012.6 |
| 20260831013554 | 89 | 118 | 3.0 | 12.0 | 0.00 | 0.00 | 0.00 | 59 | 1012.4 |
| 20260831013057 | 89 | 130 | 3.0 | 12.0 | 0.00 | 0.00 | 0.00 | 59 | 1012.5 |
| 20260831012552 | 89 | 128 | 2.0 | 11.0 | 0.00 | 0.00 | 0.00 | 58 | 1012.4 |
| 20260831012052 | 89 | 96 | 3.0 | 13.0 | 0.00 | 0.00 | 0.00 | 57 | 1012.4 |
| 20260831011604 | 89 | 100 | 4.0 | 13.0 | 0.00 | 0.00 | 0.00 | 57 | 1012.3 |
| 20260831011051 | 90 | 46 | 3.0 | 9.0 | 0.00 | 0.00 | 0.00 | 57 | 1012.3 |
| 20260831010554 | 90 | 133 | 3.0 | 10.0 | 0.00 | 0.00 | 0.00 | 56 | 1012.3 |
| 20260831010107 | 91 | 135 | 4.0 | 11.0 | 0.00 | 0.00 | 0.00 | 56 | 1012.2 |
| 20260831005556 | 91 | 110 | 2.0 | 11.0 | 0.00 | 0.00 | 0.00 | 55 | 1012.2 |
| 20260831005055 | 91 | 225 | 3.0 | 11.0 | 0.00 | 0.00 | 0.00 | 55 | 1012.1 |
| 20260831004606 | 92 | 138 | 3.0 | 11.0 | 0.00 | 0.00 | 0.00 | 54 | 1012.1 |
| 20260831004055 | 92 | 153 | 5.0 | 12.0 | 0.00 | 0.00 | 0.00 | 53 | 1012.0 |
| 20260831003554 | 93 | 140 | 2.0 | 12.0 | 0.00 | 0.00 | 0.00 | 51 | 1011.8 |
| 20260831003104 | 93 | 171 | 3.0 | 9.0 | 0.00 | 0.00 | 0.00 | 49 | 1011.7 |
| 20260831002552 | 94 | 135 | 3.0 | 9.0 | 0.00 | 0.00 | 0.00 | 49 | 1011.8 |
| 20260831002052 | 94 | 116 | 3.0 | 9.0 | 0.00 | 0.00 | 0.00 | 48 | 1011.7 |
| 20260831001602 | 95 | 159 | 2.0 | 7.0 | 0.00 | 0.00 | 0.00 | 48 | 1011.7 |
| 20260831001052 | 95 | 0 | 2.0 | 7.0 | 0.00 | 0.00 | 0.00 | 47 | 1011.6 |
| 20260831000553 | 96 | 88 | 1.0 | 9.0 | 0.00 | 0.00 | 0.00 | 47 | 1011.8 |
| 20260831000109 | 96 | 112 | 2.0 | 10.0 | 0.00 | 0.00 | 0.00 | 46 | 1011.8 |
| 20260830235555 | 96 | 76 | 4.0 | 10.0 | 0.00 | 0.00 | 0.00 | 45 | 1011.7 |
| 20260830235052 | 97 | 82 | 4.0 | 10.0 | 0.00 | 0.00 | 0.00 | 45 | 1011.6 |
| 20260830234605 | 97 | 67 | 3.0 | 9.0 | 0.00 | 0.00 | 0.00 | 45 | 1011.7 |
| 20260830234052 | 97 | 76 | 3.0 | 10.0 | 0.00 | 0.00 | 0.00 | 44 | 1011.7 |
| 20260830233554 | 97 | 94 | 3.0 | 10.0 | 0.00 | 0.00 | 0.00 | 44 | 1011.6 |
| 20260830233058 | 97 | 87 | 3.0 | 10.0 | 0.00 | 0.00 | 0.00 | 44 | 1011.6 |
| 20260830232556 | 97 | 113 | 1.0 | 5.0 | 0.00 | 0.00 | 0.00 | 44 | 1011.7 |
| 20260830232053 | 96 | 88 | 1.0 | 5.0 | 0.00 | 0.00 | 0.00 | 45 | 1011.7 |
| 20260830231556 | 96 | 0 | 0.0 | 8.0 | 0.00 | 0.00 | 0.00 | 46 | 1011.7 |
| 20260830231052 | 96 | 128 | 2.0 | 9.0 | 0.00 | 0.00 | 0.00 | 44 | 1011.8 |
| 20260830230552 | 97 | 136 | 2.0 | 9.0 | 0.00 | 0.00 | 0.00 | 43 | 1011.9 |
| 20260830230105 | 98 | 120 | 4.0 | 10.0 | 0.00 | 0.00 | 0.00 | 42 | 1011.8 |
| 20260830225551 | 98 | 128 | 3.0 | 10.0 | 0.00 | 0.00 | 0.00 | 42 | 1011.9 |
| 20260830225052 | 98 | 161 | 2.0 | 8.0 | 0.00 | 0.00 | 0.00 | 43 | 1011.9 |
| 20260830224557 | 98 | 135 | 4.0 | 8.0 | 0.00 | 0.00 | 0.00 | 42 | 1011.9 |
| 20260830224052 | 99 | 156 | 3.0 | 9.0 | 0.00 | 0.00 | 0.00 | 42 | 1011.9 |
| 20260830223552 | 99 | 148 | 3.0 | 9.0 | 0.00 | 0.00 | 0.00 | 42 | 1012.0 |
| 20260830223059 | 99 | 184 | 2.0 | 9.0 | 0.00 | 0.00 | 0.00 | 42 | 1011.9 |
| 20260830222550 | 99 | 139 | 2.0 | 9.0 | 0.00 | 0.00 | 0.00 | 41 | 1012.0 |
| 20260830222055 | 99 | 116 | 2.0 | 7.0 | 0.00 | 0.00 | 0.00 | 43 | 1012.0 |
| 20260830221609 | 99 | 163 | 2.0 | 10.0 | 0.00 | 0.00 | 0.00 | 42 | 1012.1 |
| 20260830221055 | 99 | 78 | 2.0 | 10.0 | 0.00 | 0.00 | 0.00 | 42 | 1012.0 |
| 20260830220552 | 99 | 70 | 2.0 | 8.0 | 0.00 | 0.00 | 0.00 | 43 | 1012.0 |
| 20260830220112 | 99 | 84 | 1.0 | 8.0 | 0.00 | 0.00 | 0.00 | 42 | 1012.0 |
| 20260830215552 | 99 | 100 | 2.0 | 10.0 | 0.00 | 0.00 | 0.00 | 42 | 1012.0 |
| 20260830215053 | 99 | 109 | 2.0 | 10.0 | 0.00 | 0.00 | 0.00 | 43 | 1012.1 |
| 20260830214626 | 99 | 117 | 4.0 | 11.0 | 0.00 | 0.00 | 0.00 | 43 | 1012.2 |
| 20260830214051 | 99 | 101 | 4.0 | 11.0 | 0.00 | 0.00 | 0.00 | 43 | 1012.3 |
| 20260830213553 | 99 | 74 | 1.0 | 8.0 | 0.00 | 0.00 | 0.00 | 43 | 1012.2 |
| 20260830213105 | 99 | 107 | 2.0 | 8.0 | 0.00 | 0.00 | 0.00 | 43 | 1012.3 |
| 20260830212554 | 99 | 106 | 3.0 | 8.0 | 0.00 | 0.00 | 0.00 | 43 | 1012.6 |
| 20260830212056 | 100 | 134 | 1.0 | 7.0 | 0.00 | 0.00 | 0.00 | 44 | 1012.5 |
| 20260830211601 | 99 | 109 | 2.0 | 7.0 | 0.00 | 0.00 | 0.00 | 43 | 1012.7 |
| 20260830211051 | 99 | 101 | 2.0 | 8.0 | 0.00 | 0.00 | 0.00 | 43 | 1012.8 |
| 20260830210552 | 99 | 165 | 2.0 | 11.0 | 0.00 | 0.00 | 0.00 | 44 | 1013.0 |
| 20260830210105 | 98 | 123 | 3.0 | 11.0 | 0.00 | 0.00 | 0.00 | 43 | 1013.0 |
| 20260830205554 | 98 | 117 | 3.0 | 11.0 | 0.00 | 0.00 | 0.00 | 46 | 1013.0 |
| 20260830205051 | 98 | 86 | 2.0 | 10.0 | 0.00 | 0.00 | 0.00 | 44 | 1013.0 |
| 20260830204601 | 98 | 125 | 5.0 | 10.0 | 0.00 | 0.00 | 0.00 | 45 | 1013.1 |
| 20260830204058 | 98 | 117 | 3.0 | 10.0 | 0.00 | 0.00 | 0.00 | 45 | 1013.2 |
| 20260830203556 | 97 | 148 | 2.0 | 10.0 | 0.00 | 0.00 | 0.00 | 47 | 1013.3 |
| 20260830203059 | 97 | 220 | 5.0 | 10.0 | 0.00 | 0.00 | 0.00 | 45 | 1013.4 |
| 20260830202557 | 98 | 217 | 3.0 | 11.0 | 0.00 | 0.00 | 0.00 | 45 | 1013.5 |
| 20260830202055 | 98 | 190 | 2.0 | 11.0 | 0.00 | 0.00 | 0.00 | 45 | 1013.6 |
| 20260830201602 | 98 | 119 | 4.0 | 11.0 | 0.00 | 0.00 | 0.00 | 46 | 1013.7 |
| 20260830201054 | 98 | 168 | 4.0 | 10.0 | 0.00 | 0.00 | 0.00 | 45 | 1013.8 |
| 20260830200554 | 98 | 167 | 2.0 | 10.0 | 0.00 | 0.00 | 0.00 | 47 | 1013.9 |
| 20260830200109 | 97 | 208 | 3.0 | 9.0 | 0.00 | 0.00 | 0.00 | 48 | 1014.0 |
| 20260830195554 | 97 | 112 | 4.0 | 11.0 | 0.00 | 0.00 | 0.00 | 47 | 1014.1 |
| 20260830195055 | 96 | 209 | 3.0 | 11.0 | 0.00 | 0.00 | 0.00 | 49 | 1014.1 |
| 20260830194608 | 96 | 148 | 3.0 | 11.0 | 0.00 | 0.00 | 0.00 | 49 | 1014.2 |
| 20260830194054 | 97 | 121 | 3.0 | 8.0 | 0.00 | 0.00 | 0.00 | 47 | 1014.2 |
| 20260830193553 | 96 | 117 | 3.0 | 9.0 | 0.00 | 0.00 | 0.00 | 49 | 1014.4 |
| 20260830193130 | 95 | 112 | 2.0 | 9.0 | 0.00 | 0.00 | 0.00 | 51 | 1014.5 |
| 20260830192553 | 95 | 135 | 2.0 | 9.0 | 0.00 | 0.00 | 0.00 | 50 | 1014.4 |
| 20260830192053 | 96 | 171 | 2.0 | 9.0 | 0.00 | 0.00 | 0.00 | 49 | 1014.5 |
| 20260830191604 | 96 | 170 | 4.0 | 10.0 | 0.00 | 0.00 | 0.00 | 49 | 1014.7 |
| 20260830191058 | 96 | 130 | 4.0 | 10.0 | 0.00 | 0.00 | 0.00 | 51 | 1014.6 |
| 20260830190551 | 95 | 156 | 2.0 | 8.0 | 0.00 | 0.00 | 0.00 | 52 | 1014.8 |
| 20260830190113 | 95 | 100 | 1.0 | 6.0 | 0.00 | 0.00 | 0.00 | 52 | 1014.9 |
| 20260830185554 | 95 | 0 | 1.0 | 7.0 | 0.00 | 0.00 | 0.00 | 52 | 1014.9 |
| 20260830185054 | 95 | 196 | 2.0 | 7.0 | 0.00 | 0.00 | 0.00 | 52 | 1015.1 |
| 20260830184604 | 93 | 196 | 1.0 | 8.0 | 0.00 | 0.00 | 0.00 | 54 | 1015.2 |
| 20260830184051 | 93 | 155 | 2.0 | 8.0 | 0.00 | 0.00 | 0.00 | 53 | 1015.2 |
| 20260830183553 | 93 | 144 | 1.0 | 8.0 | 0.00 | 0.00 | 0.00 | 54 | 1015.3 |
| 20260830183105 | 93 | 177 | 3.0 | 10.0 | 0.00 | 0.00 | 0.00 | 53 | 1015.4 |
| 20260830182552 | 94 | 200 | 3.0 | 10.0 | 0.00 | 0.00 | 0.00 | 54 | 1015.5 |
| 20260830182053 | 93 | 40 | 1.0 | 10.0 | 0.00 | 0.00 | 0.00 | 55 | 1015.5 |
| 20260830181609 | 92 | 144 | 2.0 | 13.0 | 0.00 | 0.00 | 0.00 | 55 | 1015.6 |
| 20260830181052 | 92 | 122 | 4.0 | 13.0 | 0.00 | 0.00 | 0.00 | 55 | 1015.7 |
| 20260830180550 | 92 | 191 | 3.0 | 9.0 | 0.00 | 0.00 | 0.00 | 57 | 1015.7 |
| 20260830175551 | 92 | 220 | 4.0 | 9.0 | 0.00 | 0.00 | 0.00 | 55 | 1015.9 |
| 20260830175052 | 93 | 128 | 3.0 | 9.0 | 0.00 | 0.00 | 0.00 | 56 | 1016.0 |
| 20260830174617 | 93 | 177 | 4.0 | 9.0 | 0.00 | 0.00 | 0.00 | 56 | 1016.0 |
| 20260830174052 | 92 | 151 | 2.0 | 8.0 | 0.00 | 0.00 | 0.00 | 59 | 1016.1 |
| 20260830173551 | 91 | 107 | 1.0 | 6.0 | 0.00 | 0.00 | 0.00 | 59 | 1016.1 |
| 20260830173113 | 91 | 130 | 2.0 | 10.0 | 0.00 | 0.00 | 0.00 | 60 | 1016.2 |
| 20260830172552 | 90 | 130 | 3.0 | 10.0 | 0.00 | 0.00 | 0.00 | 60 | 1016.2 |
| 20260830172051 | 90 | 131 | 3.0 | 10.0 | 0.00 | 0.00 | 0.00 | 61 | 1016.4 |
| 20260830171604 | 90 | 192 | 4.0 | 9.0 | 0.00 | 0.00 | 0.00 | 61 | 1016.4 |
| 20260830171049 | 89 | 153 | 1.0 | 7.0 | 0.00 | 0.00 | 0.00 | 63 | 1016.5 |
| 20260830170548 | 89 | 180 | 3.0 | 7.0 | 0.00 | 0.00 | 0.00 | 63 | 1016.5 |
| 20260830170110 | 89 | 207 | 2.0 | 8.0 | 0.00 | 0.00 | 0.00 | 63 | 1016.5 |
| 20260830165551 | 89 | 0 | 2.0 | 9.0 | 0.00 | 0.00 | 0.00 | 64 | 1016.5 |
| 20260830165052 | 89 | 144 | 3.0 | 10.0 | 0.00 | 0.00 | 0.00 | 65 | 1016.7 |
| 20260830164559 | 88 | 223 | 2.0 | 10.0 | 0.00 | 0.00 | 0.00 | 66 | 1016.6 |
| 20260830164052 | 88 | 213 | 4.0 | 9.0 | 0.00 | 0.00 | 0.00 | 64 | 1016.7 |
| 20260830163553 | 88 | 198 | 2.0 | 10.0 | 0.00 | 0.00 | 0.00 | 68 | 1016.6 |
| 20260830163057 | 87 | 157 | 2.0 | 10.0 | 0.00 | 0.00 | 0.00 | 69 | 1016.7 |
| 20260830162551 | 86 | 209 | 4.0 | 10.0 | 0.00 | 0.00 | 0.00 | 70 | 1016.6 |
| 20260830162051 | 86 | 251 | 2.0 | 10.0 | 0.00 | 0.00 | 0.00 | 71 | 1016.7 |
| 20260830161559 | 86 | 291 | 2.0 | 11.0 | 0.00 | 0.00 | 0.00 | 70 | 1016.6 |
| 20260830161051 | 85 | 200 | 3.0 | 11.0 | 0.00 | 0.00 | 0.00 | 70 | 1016.7 |
| 20260830160551 | 85 | 143 | 3.0 | 11.0 | 0.00 | 0.00 | 0.00 | 71 | 1016.7 |
| 20260830160104 | 85 | 311 | 5.0 | 12.0 | 0.00 | 0.00 | 0.00 | 72 | 1016.7 |
| 20260830155551 | 86 | 235 | 5.0 | 12.0 | 0.00 | 0.00 | 0.00 | 72 | 1016.7 |
| 20260830155051 | 86 | 290 | 3.0 | 8.0 | 0.00 | 0.00 | 0.00 | 72 | 1016.6 |
| 20260830154604 | 85 | 300 | 3.0 | 10.0 | 0.00 | 0.00 | 0.00 | 73 | 1016.6 |
| 20260830154051 | 85 | 202 | 4.0 | 10.0 | 0.00 | 0.00 | 0.00 | 72 | 1016.7 |
| 20260830153552 | 85 | 211 | 6.0 | 10.0 | 0.00 | 0.00 | 0.00 | 72 | 1016.6 |
| 20260830153102 | 85 | 209 | 3.0 | 10.0 | 0.00 | 0.00 | 0.00 | 75 | 1016.6 |
| 20260830152551 | 84 | 209 | 5.0 | 10.0 | 0.00 | 0.00 | 0.00 | 77 | 1016.7 |
| 20260830152054 | 84 | 13 | 3.0 | 9.0 | 0.00 | 0.00 | 0.00 | 78 | 1016.5 |
| 20260830151609 | 83 | 268 | 3.0 | 6.0 | 0.00 | 0.00 | 0.00 | 79 | 1016.6 |
| 20260830151053 | 83 | 175 | 1.0 | 6.0 | 0.00 | 0.00 | 0.00 | 80 | 1016.6 |
| 20260830150555 | 82 | 150 | 3.0 | 6.0 | 0.00 | 0.00 | 0.00 | 81 | 1016.6 |
| 20260830150110 | 82 | 215 | 2.0 | 10.0 | 0.00 | 0.00 | 0.00 | 82 | 1016.6 |
| 20260830145554 | 81 | 131 | 4.0 | 10.0 | 0.00 | 0.00 | 0.00 | 82 | 1016.7 |
| 20260830145054 | 81 | 201 | 2.0 | 9.0 | 0.00 | 0.00 | 0.00 | 83 | 1016.6 |
| 20260830144611 | 81 | 224 | 3.0 | 12.0 | 0.00 | 0.00 | 0.00 | 83 | 1016.6 |
| 20260830144054 | 80 | 236 | 5.0 | 12.0 | 0.00 | 0.00 | 0.00 | 84 | 1016.7 |
| 20260830143557 | 80 | 205 | 4.0 | 9.0 | 0.00 | 0.00 | 0.00 | 84 | 1016.6 |
| 20260830143104 | 80 | 240 | 3.0 | 9.0 | 0.00 | 0.00 | 0.00 | 85 | 1016.6 |
| 20260830142557 | 79 | 279 | 4.0 | 10.0 | 0.00 | 0.00 | 0.00 | 85 | 1016.6 |
| 20260830142052 | 79 | 203 | 3.0 | 10.0 | 0.00 | 0.00 | 0.00 | 85 | 1016.6 |
| 20260830141606 | 79 | 233 | 5.0 | 11.0 | 0.00 | 0.00 | 0.00 | 86 | 1016.5 |
| 20260830141057 | 79 | 200 | 4.0 | 11.0 | 0.00 | 0.00 | 0.00 | 87 | 1016.4 |
| 20260830140554 | 79 | 200 | 4.0 | 11.0 | 0.00 | 0.00 | 0.00 | 87 | 1016.4 |
| 20260830140104 | 78 | 236 | 6.0 | 11.0 | 0.00 | 0.00 | 0.00 | 88 | 1016.5 |
| 20260830135551 | 79 | 252 | 3.0 | 9.0 | 0.00 | 0.00 | 0.00 | 90 | 1016.4 |
| 20260830135054 | 78 | 0 | 3.0 | 8.0 | 0.00 | 0.00 | 0.00 | 91 | 1016.4 |
| 20260830134614 | 78 | 215 | 3.0 | 8.0 | 0.00 | 0.00 | 0.00 | 91 | 1016.4 |
| 20260830134054 | 78 | 208 | 4.0 | 10.0 | 0.00 | 0.00 | 0.00 | 91 | 1016.3 |
| 20260830133553 | 77 | 235 | 3.0 | 10.0 | 0.00 | 0.00 | 0.00 | 91 | 1016.3 |
| 20260830133116 | 77 | 174 | 3.0 | 9.0 | 0.00 | 0.00 | 0.00 | 91 | 1016.3 |
| 20260830132551 | 77 | 173 | 4.0 | 9.0 | 0.00 | 0.00 | 0.00 | 91 | 1016.1 |
| 20260830132053 | 77 | 203 | 4.0 | 8.0 | 0.00 | 0.00 | 0.00 | 91 | 1016.2 |
| 20260830131608 | 77 | 189 | 2.0 | 8.0 | 0.00 | 0.00 | 0.00 | 91 | 1016.2 |
| 20260830131054 | 77 | 190 | 3.0 | 8.0 | 0.00 | 0.00 | 0.00 | 91 | 1016.2 |
| 20260830130554 | 77 | 220 | 2.0 | 6.0 | 0.00 | 0.00 | 0.00 | 91 | 1016.1 |
| 20260830130110 | 77 | 208 | 2.0 | 6.0 | 0.00 | 0.00 | 0.00 | 91 | 1016.1 |
| 20260830125553 | 76 | 207 | 2.0 | 9.0 | 0.00 | 0.00 | 0.00 | 91 | 1016.2 |
| 20260830125053 | 76 | 223 | 3.0 | 9.0 | 0.00 | 0.00 | 0.00 | 91 | 1016.1 |
| 20260830124607 | 76 | 194 | 3.0 | 7.0 | 0.00 | 0.00 | 0.00 | 91 | 1016.0 |
| 20260830124053 | 76 | 186 | 3.0 | 9.0 | 0.00 | 0.00 | 0.00 | 91 | 1015.8 |
| 20260830123556 | 76 | 199 | 4.0 | 9.0 | 0.00 | 0.00 | 0.00 | 91 | 1015.8 |
| 20260830123110 | 76 | 190 | 2.0 | 8.0 | 0.00 | 0.00 | 0.00 | 91 | 1015.7 |
| 20260830122553 | 76 | 223 | 3.0 | 8.0 | 0.00 | 0.00 | 0.00 | 91 | 1015.6 |
| 20260830122058 | 76 | 198 | 3.0 | 8.0 | 0.00 | 0.00 | 0.00 | 91 | 1015.7 |
| 20260830121607 | 76 | 199 | 3.0 | 8.0 | 0.00 | 0.00 | 0.00 | 91 | 1015.6 |
| 20260830121054 | 76 | 234 | 3.0 | 7.0 | 0.00 | 0.00 | 0.00 | 91 | 1015.6 |
| 20260830120553 | 76 | 209 | 3.0 | 10.0 | 0.00 | 0.00 | 0.00 | 91 | 1015.5 |
| 20260830120104 | 76 | 208 | 4.0 | 10.0 | 0.00 | 0.00 | 0.00 | 91 | 1015.4 |
| 20260830115553 | 76 | 187 | 4.0 | 11.0 | 0.00 | 0.00 | 0.00 | 91 | 1015.5 |
| 20260830115051 | 77 | 232 | 4.0 | 11.0 | 0.00 | 0.00 | 0.00 | 91 | 1015.4 |
| 20260830114613 | 77 | 239 | 4.0 | 11.0 | 0.00 | 0.00 | 0.00 | 91 | 1015.4 |
| 20260830114050 | 77 | 211 | 5.0 | 11.0 | 0.00 | 0.00 | 0.00 | 91 | 1015.5 |
| 20260830113552 | 76 | 216 | 4.0 | 9.0 | 0.00 | 0.00 | 0.00 | 91 | 1015.5 |
| 20260830113059 | 77 | 225 | 4.0 | 10.0 | 0.00 | 0.00 | 0.00 | 91 | 1015.5 |
| 20260830112554 | 76 | 173 | 4.0 | 10.0 | 0.00 | 0.00 | 0.00 | 91 | 1015.5 |
| 20260830112054 | 76 | 227 | 5.0 | 10.0 | 0.00 | 0.00 | 0.00 | 91 | 1015.5 |
| 20260830111601 | 76 | 227 | 4.0 | 10.0 | 0.00 | 0.00 | 0.00 | 91 | 1015.6 |
| 20260830111055 | 76 | 232 | 4.0 | 11.0 | 0.00 | 0.00 | 0.00 | 91 | 1015.6 |
| 20260830110554 | 77 | 208 | 5.0 | 11.0 | 0.00 | 0.00 | 0.00 | 91 | 1015.5 |
| 20260830110105 | 76 | 223 | 4.0 | 9.0 | 0.00 | 0.00 | 0.00 | 91 | 1015.5 |
| 20260830105551 | 76 | 198 | 4.0 | 7.0 | 0.00 | 0.00 | 0.00 | 91 | 1015.4 |
| 20260830105051 | 76 | 209 | 2.0 | 8.0 | 0.00 | 0.00 | 0.00 | 91 | 1015.4 |
| 20260830104616 | 76 | 192 | 3.0 | 8.0 | 0.00 | 0.00 | 0.00 | 91 | 1015.3 |
| 20260830104053 | 76 | 222 | 3.0 | 8.0 | 0.00 | 0.00 | 0.00 | 91 | 1015.4 |
| 20260830103554 | 76 | 200 | 2.0 | 8.0 | 0.00 | 0.00 | 0.00 | 91 | 1015.5 |
| 20260830103119 | 76 | 206 | 2.0 | 7.0 | 0.00 | 0.00 | 0.00 | 90 | 1015.5 |
| 20260830102553 | 76 | 189 | 2.0 | 6.0 | 0.00 | 0.00 | 0.00 | 90 | 1015.4 |
| 20260830102053 | 76 | 205 | 2.0 | 6.0 | 0.00 | 0.00 | 0.00 | 90 | 1015.4 |
| 20260830101555 | 76 | 203 | 2.0 | 5.0 | 0.00 | 0.00 | 0.00 | 90 | 1015.4 |
| 20260830101054 | 76 | 201 | 2.0 | 5.0 | 0.00 | 0.00 | 0.00 | 90 | 1015.5 |
| 20260830100552 | 76 | 200 | 2.0 | 5.0 | 0.00 | 0.00 | 0.00 | 90 | 1015.3 |
| 20260830100110 | 76 | 196 | 2.0 | 5.0 | 0.00 | 0.00 | 0.00 | 89 | 1015.3 |
| 20260830095551 | 76 | 187 | 2.0 | 6.0 | 0.00 | 0.01 | 0.00 | 89 | 1015.3 |
| 20260830095053 | 76 | 185 | 2.0 | 6.0 | 0.00 | 0.01 | 0.00 | 89 | 1015.3 |
| 20260830094559 | 76 | 183 | 3.0 | 6.0 | 0.00 | 0.01 | 0.00 | 89 | 1015.4 |
| 20260830094054 | 76 | 203 | 2.0 | 5.0 | 0.00 | 0.01 | 0.00 | 89 | 1015.4 |
| 20260830093551 | 76 | 175 | 2.0 | 5.0 | 0.00 | 0.01 | 0.00 | 88 | 1015.4 |
| 20260830093107 | 76 | 175 | 1.0 | 4.0 | 0.00 | 0.01 | 0.00 | 88 | 1015.5 |
| 20260830092554 | 76 | 175 | 1.0 | 4.0 | 0.00 | 0.01 | 0.00 | 88 | 1015.3 |
| 20260830092053 | 76 | 175 | 1.0 | 4.0 | 0.00 | 0.01 | 0.00 | 88 | 1015.3 |
| 20260830091602 | 76 | 175 | 1.0 | 6.0 | 0.00 | 0.01 | 0.00 | 87 | 1015.3 |
| 20260830091053 | 76 | 175 | 1.0 | 6.0 | 0.00 | 0.01 | 0.00 | 87 | 1015.5 |
| 20260830090554 | 76 | 0 | 2.0 | 5.0 | 0.00 | 0.01 | 0.00 | 87 | 1015.5 |
| 20260830090101 | 76 | 170 | 1.0 | 5.0 | 0.00 | 0.01 | 0.00 | 87 | 1015.5 |
| 20260830085553 | 76 | 171 | 1.0 | 5.0 | 0.00 | 0.01 | 0.00 | 86 | 1015.4 |
| 20260830085054 | 76 | 0 | 1.0 | 4.0 | 0.00 | 0.01 | 0.00 | 86 | 1015.5 |
| 20260830084609 | 76 | 176 | 0.0 | 4.0 | 0.00 | 0.01 | 0.00 | 86 | 1015.6 |
| 20260830084054 | 76 | 176 | 0.0 | 5.0 | 0.00 | 0.01 | 0.00 | 86 | 1015.5 |
| 20260830083553 | 76 | 180 | 1.0 | 5.0 | 0.00 | 0.01 | 0.00 | 86 | 1015.5 |
| 20260830083059 | 76 | 177 | 1.0 | 5.0 | 0.00 | 0.01 | 0.00 | 85 | 1015.4 |
| 20260830082554 | 76 | 176 | 1.0 | 4.0 | 0.00 | 0.01 | 0.00 | 85 | 1015.6 |
| 20260830082055 | 77 | 0 | 2.0 | 6.0 | 0.00 | 0.01 | 0.00 | 85 | 1015.6 |
| 20260830081605 | 77 | 177 | 2.0 | 6.0 | 0.00 | 0.01 | 0.00 | 84 | 1015.7 |
| 20260830081053 | 77 | 175 | 1.0 | 4.0 | 0.00 | 0.01 | 0.00 | 84 | 1015.6 |
| 20260830080555 | 77 | 175 | 0.0 | 3.0 | 0.00 | 0.01 | 0.00 | 84 | 1015.5 |
| 20260830080123 | 77 | 176 | 1.0 | 3.0 | 0.00 | 0.01 | 0.00 | 83 | 1015.5 |
| 20260830075554 | 77 | 0 | 1.0 | 5.0 | 0.00 | 0.01 | 0.00 | 83 | 1015.6 |
| 20260830075051 | 77 | 175 | 1.0 | 6.0 | 0.00 | 0.01 | 0.00 | 83 | 1015.8 |
| 20260830074602 | 77 | 175 | 2.0 | 6.0 | 0.00 | 0.01 | 0.00 | 83 | 1015.7 |
| 20260830074057 | 77 | 178 | 2.0 | 7.0 | 0.00 | 0.01 | 0.00 | 82 | 1015.7 |